Regional Weather Roundup
Issued by NWS Kansas City/Pleasant Hill, MO

Home | Current Version | Previous Version | Graphics & Text | Print | Product List | Glossary Off
Versions: 1 2 3 4 5 6 7 8 9 10 11 12 13 14 15 16 17 18 19 20 21 22 23 24 25 26 27 28 29 30 31 32 33 34 35 36 37 38 39 40 41 42 43 44 45 46 47 48 49 50

000
ASUS43 KEAX 231410
RWREAX

WEATHER ROUNDUP FOR EASTERN KANSAS AND NORTHWEST MISSOURI
NATIONAL WEATHER SERVICE KANSAS CITY/PLEASANT HILL MO
900 AM CDT TUE MAY 23 2017

KSZ040-057-103>105-MOZ028-029-037-043-231500-
...KANSAS CITY METROPOLITAN AREA...

CITY           SKY/WX    TMP DP  RH WIND       PRES   REMARKS
K.C. INTL      CLOUDY    56  51  84 N12       29.90R
K.C. DOWNTOWN  CLOUDY    57  51  80 VRB7      29.89R
LEES SUMMIT    LGT RAIN  54  52  93 N13       29.89S
OLATHE - IXD   CLOUDY    54  50  86 N13       29.90S
OLATHE - OJC   CLOUDY    53  52  96 N13       29.89S
LAWRENCE       CLOUDY    56  52  86 NW9       29.91R

$$

MOZ001>008-011>017-020>025-030>033-038>040-044>046-053-054-231500-
...NORTHERN AND CENTRAL MISSOURI...

CITY           SKY/WX    TMP DP  RH WIND       PRES   REMARKS
ST. JOSEPH     SUNNY     57  50  77 NW7       29.91R
MOSBY          MOSUNNY   54  50  87 NW7       29.89R
WARRENSBURG    CLOUDY    55  55 100 NW5       29.86S FOG
WHITEMAN AFB   CLOUDY    58  58 100 NW8       29.84F FOG
CLINTON        CLOUDY    57  55  94 NW8       29.87R
SEDALIA        CLOUDY    58  58 100 NW6       29.86S
WARSAW         NOT AVBL
CHILLICOTHE      N/A     55  52  89 VRB5      29.88R
KIRKSVILLE     CLOUDY    56  53  90 NW7       29.84R

$$

MOZ041-047>049-056>058-063>065-088>090-097-231500-
...EASTERN AND SOUTHERN MISSOURI...

CITY           SKY/WX    TMP DP  RH WIND       PRES   REMARKS
ST. LOUIS INTL PTSUNNY   68  54  60 CALM      29.80F
SPIRIT OF STL  CLOUDY    66  56  70 SW3       29.79F
COLUMBIA       CLOUDY    59  57  93 NW5       29.83R
JEFFERSON CITY CLOUDY    61  56  83 NW8       29.82S
ROLLA          LGT RAIN  58  58 100 SW5       29.80F
OSAGE BEACH    CLOUDY    60  58  92 VRB6      29.83S
SPRINGFIELD    CLOUDY    62  58  86 NW8       29.84S
BRANSON        PTSUNNY   63  59  88 W3        29.85S
JOPLIN         CLOUDY    63  58  83 N12       29.87S
WEST PLAINS    CLOUDY    60  55  83 W5        29.83S

$$

IAZ060-094-KSZ022-034>040-054-083-096-NEZ052-066-093-231500-
...KANSAS...SOUTHEAST NEBRASKA AND IOWA...

CITY           SKY/WX    TMP DP  RH WIND       PRES   REMARKS
TOPEKA         CLOUDY    55  51  86 NW5       29.92S
MANHATTAN      SUNNY     59  49  69 VRB7      29.95S
EMPORIA        PTSUNNY   56  49  77 N12       29.93S
WICHITA        PTSUNNY   57  49  74 N17       29.97S
OMAHA          PTSUNNY   55  43  63 NW10      29.91F
LINCOLN        MOSUNNY   57  44  62 NW10      29.94F
FALLS CITY     SUNNY     56  47  71 NW10      29.91S
LAMONI         PTSUNNY   56  49  77 NW12G17   29.86F
DES MOINES     MOSUNNY   56  48  74 N13       29.84S

$$




USA.gov is the U.S. government's official web portal to all federal, state and local government web resources and services.